TimeAKST,TemperatureF,Dew PointF,Humidity,Sea Level PressureIn,VisibilityMPH,Wind Direction,Wind SpeedMPH,Gust SpeedMPH,PrecipitationIn,Events,Conditions,WindDirDegrees,DateUTC
12:54 AM,36.0,34.0,93,29.53,10.0,East,9.2,19.6,0.00,,Overcast,80,2013-02-20 09:54:00
1:52 AM,35.6,33.8,93,29.50,10.0,ENE,11.5,17.3,0.01,Rain,Light Rain,70,2013-02-20 10:52:00
1:54 AM,36.0,33.1,89,29.51,10.0,ENE,12.7,18.4,0.01,Rain,Light Rain,70,2013-02-20 10:54:00
2:04 AM,35.6,33.8,93,29.49,10.0,East,12.7,21.9,0.00,Rain,Light Rain,80,2013-02-20 11:04:00
2:34 AM,35.6,33.8,93,29.47,10.0,ENE,15.0,23.0,0.00,Rain,Light Rain,70,2013-02-20 11:34:00
3:29 AM,35.6,33.8,93,29.44,9.0,ENE,12.7,20.7,0.01,Rain,Light Rain,70,2013-02-20 12:29:00
3:54 AM,35.1,33.1,92,29.44,10.0,East,16.1,25.3,0.02,Rain,Light Rain,90,2013-02-20 12:54:00
4:03 AM,35.6,33.8,93,29.42,9.0,East,13.8,25.3,0.00,Rain,Light Rain,80,2013-02-20 13:03:00
4:51 AM,35.6,33.8,93,29.39,9.0,East,11.5,23.0,0.01,Rain,Light Rain,80,2013-02-20 13:51:00
4:54 AM,35.1,33.1,92,29.40,8.0,East,15.0,23.0,0.02,Rain,Light Rain,80,2013-02-20 13:54:00
5:20 AM,35.6,33.8,93,29.38,9.0,East,16.1,26.5,0.01,Rain,Light Rain,90,2013-02-20 14:20:00
5:54 AM,35.1,33.1,92,29.38,8.0,East,16.1,25.3,0.02,Rain,Light Rain,80,2013-02-20 14:54:00
6:54 AM,35.1,33.1,92,29.36,10.0,East,15.0,29.9,0.03,Rain,Light Rain,80,2013-02-20 15:54:00
7:54 AM,35.1,33.1,92,29.36,10.0,East,13.8,25.3,0.02,Rain,Light Rain,90,2013-02-20 16:54:00
8:11 AM,35.6,33.8,93,29.35,10.0,East,12.7,25.3,0.00,Rain,Light Rain,100,2013-02-20 17:11:00
8:32 AM,35.6,33.8,93,29.34,10.0,East,12.7,23.0,0.00,Rain,Light Rain,90,2013-02-20 17:32:00
8:54 AM,35.1,33.1,92,29.35,10.0,East,13.8,33.4,0.00,Rain,Light Rain,100,2013-02-20 17:54:00
9:54 AM,37.0,34.0,89,29.36,10.0,ESE,18.4,31.1,0.01,Rain,Light Rain,110,2013-02-20 18:54:00
10:54 AM,37.9,34.0,86,29.36,10.0,East,12.7,28.8,0.00,Rain,Light Rain,100,2013-02-20 19:54:00
11:54 AM,36.0,34.0,93,29.36,10.0,East,13.8,24.2,0.00,Rain,Light Rain,100,2013-02-20 20:54:00
12:54 PM,36.0,34.0,93,29.34,10.0,East,13.8,18.4,0.01,Rain,Light Rain,100,2013-02-20 21:54:00
1:36 PM,35.6,33.8,93,29.32,10.0,ESE,11.5,21.9,0.01,Rain,Light Rain,110,2013-02-20 22:36:00
1:54 PM,35.1,33.1,92,29.33,10.0,East,12.7,21.9,0.02,Rain,Light Rain,100,2013-02-20 22:54:00
2:54 PM,35.1,34.0,96,29.32,10.0,ESE,12.7,20.7,0.03,Rain,Light Rain,110,2013-02-20 23:54:00
3:21 PM,35.6,33.8,93,29.31,9.0,ESE,15.0,25.3,0.00,Rain,Light Rain,110,2013-02-21 00:21:00
3:54 PM,37.0,34.0,89,29.33,10.0,ESE,16.1,31.1,0.00,Rain,Light Rain,110,2013-02-21 00:54:00
4:54 PM,36.0,34.0,93,29.32,10.0,East,12.7,23.0,0.01,Rain,Light Rain,90,2013-02-21 01:54:00
5:54 PM,36.0,34.0,93,29.31,10.0,East,11.5,21.9,0.00,,Overcast,100,2013-02-21 02:54:00
6:54 PM,36.0,34.0,93,29.30,10.0,East,12.7,19.6,N/A,,Overcast,80,2013-02-21 03:54:00
7:42 PM,35.6,33.8,93,29.30,10.0,East,11.5,17.3,N/A,,Overcast,90,2013-02-21 04:42:00
7:54 PM,36.0,34.0,93,29.31,10.0,East,10.4,-,N/A,,Overcast,100,2013-02-21 04:54:00
8:52 PM,35.6,33.8,93,29.30,10.0,ENE,11.5,23.0,0.00,,Overcast,70,2013-02-21 05:52:00
8:54 PM,36.0,33.1,89,29.31,10.0,ENE,11.5,23.0,0.00,,Overcast,70,2013-02-21 05:54:00
9:32 PM,35.6,33.8,93,29.30,10.0,East,12.7,25.3,0.00,,Overcast,80,2013-02-21 06:32:00
9:54 PM,36.0,33.1,89,29.31,10.0,ENE,13.8,21.9,0.00,,Overcast,70,2013-02-21 06:54:00
10:25 PM,35.6,33.8,93,29.30,10.0,East,10.4,19.6,N/A,,Overcast,80,2013-02-21 07:25:00
10:45 PM,35.6,33.8,93,29.30,10.0,ENE,12.7,20.7,0.00,Rain,Light Rain,70,2013-02-21 07:45:00
10:54 PM,36.0,33.1,89,29.31,10.0,ENE,12.7,20.7,0.00,Rain,Light Rain,70,2013-02-21 07:54:00
11:08 PM,35.6,33.8,93,29.30,10.0,ENE,11.5,-,0.00,Rain,Light Rain,70,2013-02-21 08:08:00
11:21 PM,35.6,33.8,93,29.30,10.0,East,9.2,18.4,0.00,Rain,Light Rain,80,2013-02-21 08:21:00
11:54 PM,36.0,33.1,89,29.32,10.0,ENE,10.4,21.9,0.00,,Overcast,70,2013-02-21 08:54:00